This is the latest recevied weather packets stored in our database for station/object DK5GB. If no packets are shown the sender has not sent any weather packets the latest 10 day(s).
| Time | Temp. | Humidity | Pressure | Rain* | Wind** | Luminosity | Snow |
|---|---|---|---|---|---|---|---|
| 1777551319 | 16.67° C | 27% | 1029.1 hPa | 0 mm | - | - | - |
| 1777550117 | 16.11° C | 27% | 1029.2 hPa | 0 mm | - | - | - |
| 1777549519 | 16.11° C | 28% | 1029.5 hPa | 0 mm | - | - | - |
| 1777543517 | 14.44° C | 31% | 1030 hPa | 0 mm | - | - | - |
| 1777541738 | 14.44° C | 33% | 1030.1 hPa | 0 mm | - | - | - |
| 1777539317 | 12.78° C | 33% | 1030.5 hPa | 0 mm | - | - | - |
| 1777536918 | 12.22° C | 36% | 1030.4 hPa | 0 mm | - | - | - |
| 1777532117 | 10.56° C | 42% | 1030.3 hPa | 0 mm | - | - | - |
| 1777530317 | 9.44° C | 45% | 1030.2 hPa | 0 mm | - | - | - |
| 1777527317 | 6.11° C | 55% | 1029.8 hPa | 0 mm | - | - | - |
| 1777526117 | 5° C | 58% | 1029.6 hPa | 0 mm | - | - | - |
| 1777522517 | 5° C | 59% | 1029.3 hPa | 0 mm | - | - | - |
| 1777520717 | 5.56° C | 52% | 1029.4 hPa | 0 mm | - | - | - |
| 1777518916 | 6.11° C | 51% | 1029.4 hPa | 0 mm | - | - | - |
| 1777518337 | 6.11° C | 51% | 1029.4 hPa | 0 mm | - | - | - |
| 1777513517 | 6.11° C | 55% | 1029.5 hPa | 0 mm | - | - | - |
| 1777509916 | 7.22° C | 53% | 1029.3 hPa | 0 mm | - | - | - |
| 1777509316 | 7.22° C | 53% | 1029.1 hPa | 0 mm | - | - | - |
| 1777508716 | 7.78° C | 50% | 1029 hPa | 0 mm | - | - | - |
| 1777508116 | 7.78° C | 52% | 1029.1 hPa | 0 mm | - | - | - |
| 1777507516 | 7.78° C | 50% | 1029 hPa | 0 mm | - | - | - |
| 1777506936 | 7.78° C | 52% | 1029.1 hPa | 0 mm | - | - | - |
| 1777506316 | 7.78° C | 52% | 1029 hPa | 0 mm | - | - | - |
| 1777505716 | 7.78° C | 54% | 1028.9 hPa | 0 mm | - | - | - |
| 1777504516 | 7.78° C | 55% | 1028.8 hPa | 0 mm | - | - | - |
* Rain latest hour (hover to see other rain measurements)
** Current wind speed in m/s (hover to see current wind gust speed)